| time (UTC) | temp F | wind direction | speed MPH | gust MPH | rain 1hr in | rain 24hr in | rain mn in | humidity % | barometer mb |
| 20260906223827 | 76 | 300 | 2.0 | 4.0 | 0.00 | 0.36 | 0.36 | 82 | 1013.4 |
| 20260906223322 | 76 | 313 | 2.0 | 4.0 | 0.00 | 0.36 | 0.36 | 82 | 1013.5 |
| 20260906222814 | 77 | 312 | 3.0 | 7.0 | 0.00 | 0.36 | 0.36 | 81 | 1013.5 |
| 20260906222325 | 78 | 302 | 5.0 | 7.0 | 0.00 | 0.36 | 0.36 | 78 | 1013.5 |
| 20260906221816 | 79 | 322 | 0.0 | 0.0 | 0.00 | 0.36 | 0.36 | 71 | 1013.6 |
| 20260906221348 | 78 | 142 | 0.0 | 0.0 | 0.00 | 0.36 | 0.36 | 71 | 1013.5 |
| 20260906220818 | 78 | 142 | 0.0 | 0.0 | 0.00 | 0.36 | 0.36 | 73 | 1013.7 |
| 20260906220330 | 77 | 142 | 0.0 | 0.0 | 0.00 | 0.36 | 0.36 | 73 | 1013.6 |
| 20260906215822 | 77 | 142 | 0.0 | 0.0 | 0.00 | 0.36 | 0.36 | 76 | 1013.7 |
| 20260906215317 | 77 | 162 | 0.0 | 0.0 | 0.00 | 0.36 | 0.36 | 79 | 1013.8 |
| 20260906214828 | 76 | 159 | 0.0 | 2.0 | 0.01 | 0.36 | 0.36 | 81 | 1013.8 |
| 20260906214339 | 76 | 139 | 0.0 | 3.0 | 0.01 | 0.36 | 0.36 | 85 | 1013.9 |
| 20260906213851 | 75 | 152 | 0.0 | 1.0 | 0.01 | 0.36 | 0.36 | 86 | 1014.0 |
| 20260906213322 | 74 | 115 | 0.0 | 2.0 | 0.01 | 0.36 | 0.36 | 88 | 1014.2 |
| 20260906212813 | 74 | 184 | 0.0 | 2.0 | 0.01 | 0.36 | 0.36 | 90 | 1014.4 |
| 20260906212323 | 74 | 124 | 0.0 | 1.0 | 0.01 | 0.36 | 0.36 | 91 | 1014.5 |
| 20260906211814 | 73 | 143 | 0.0 | 0.0 | 0.01 | 0.36 | 0.36 | 92 | 1014.6 |
| 20260906211327 | 72 | 94 | 0.0 | 0.0 | 0.01 | 0.36 | 0.36 | 92 | 1014.7 |
| 20260906210839 | 72 | 94 | 0.0 | 2.0 | 0.01 | 0.36 | 0.36 | 92 | 1014.7 |
| 20260906210330 | 71 | 94 | 0.0 | 3.0 | 0.01 | 0.36 | 0.36 | 93 | 1014.7 |
| 20260906205842 | 71 | 120 | 0.0 | 1.0 | 0.02 | 0.36 | 0.36 | 93 | 1014.9 |
| 20260906205336 | 71 | 136 | 0.0 | 1.0 | 0.03 | 0.36 | 0.36 | 94 | 1015.2 |
| 20260906204827 | 71 | 121 | 0.0 | 1.0 | 0.03 | 0.35 | 0.35 | 94 | 1015.3 |
| 20260906204317 | 70 | 121 | 0.0 | 1.0 | 0.05 | 0.35 | 0.35 | 94 | 1015.4 |
| 20260906203830 | 69 | 68 | 0.0 | 6.0 | 0.06 | 0.35 | 0.35 | 94 | 1015.4 |
| 20260906203321 | 69 | 68 | 1.0 | 6.0 | 0.07 | 0.35 | 0.35 | 93 | 1015.7 |
| 20260906202813 | 68 | 108 | 3.0 | 6.0 | 0.09 | 0.35 | 0.35 | 93 | 1015.7 |
| 20260906202325 | 68 | 108 | 3.0 | 6.0 | 0.09 | 0.35 | 0.35 | 93 | 1015.9 |
| 20260906201837 | 68 | 95 | 2.0 | 6.0 | 0.10 | 0.35 | 0.35 | 92 | 1016.1 |
| 20260906201329 | 68 | 100 | 1.0 | 4.0 | 0.11 | 0.35 | 0.35 | 92 | 1016.2 |
| 20260906200820 | 67 | 101 | 0.0 | 3.0 | 0.12 | 0.35 | 0.35 | 92 | 1016.3 |
| 20260906200336 | 67 | 86 | 0.0 | 0.0 | 0.12 | 0.34 | 0.34 | 92 | 1016.6 |
| 20260906195827 | 67 | 298 | 0.0 | 0.0 | 0.12 | 0.34 | 0.34 | 92 | 1016.7 |
| 20260906195320 | 67 | 298 | 0.0 | 0.0 | 0.12 | 0.33 | 0.33 | 91 | 1017.1 |
| 20260906194812 | 67 | 298 | 0.0 | 0.0 | 0.10 | 0.31 | 0.31 | 91 | 1017.1 |
| 20260906193821 | 67 | 298 | 0.0 | 0.0 | 0.08 | 0.29 | 0.29 | 91 | 1017.1 |
| 20260906193312 | 67 | 298 | 0.0 | 0.0 | 0.07 | 0.28 | 0.28 | 90 | 1017.1 |
| 20260906192824 | 67 | 298 | 0.0 | 0.0 | 0.06 | 0.26 | 0.26 | 90 | 1016.9 |
| 20260906192316 | 67 | 298 | 0.0 | 5.0 | 0.05 | 0.25 | 0.25 | 90 | 1017.0 |
| 20260906191849 | 67 | 298 | 1.0 | 5.0 | 0.06 | 0.25 | 0.25 | 89 | 1016.9 |
| 20260906191318 | 67 | 308 | 2.0 | 4.0 | 0.05 | 0.24 | 0.24 | 89 | 1016.9 |
| 20260906190814 | 67 | 308 | 0.0 | 2.0 | 0.05 | 0.23 | 0.23 | 88 | 1016.9 |
| 20260906190326 | 68 | 319 | 0.0 | 3.0 | 0.04 | 0.22 | 0.22 | 88 | 1017.0 |
| 20260906185817 | 68 | 287 | 1.0 | 4.0 | 0.05 | 0.22 | 0.22 | 88 | 1017.1 |
| 20260906185329 | 69 | 274 | 1.0 | 4.0 | 0.04 | 0.21 | 0.21 | 88 | 1017.0 |
| 20260906184841 | 69 | 60 | 0.0 | 0.0 | 0.05 | 0.21 | 0.21 | 88 | 1016.9 |
| 20260906184351 | 69 | 60 | 0.0 | 0.0 | 0.06 | 0.21 | 0.21 | 89 | 1016.8 |
| 20260906183820 | 69 | 60 | 0.0 | 0.0 | 0.07 | 0.21 | 0.21 | 89 | 1016.8 |
| 20260906183311 | 69 | 60 | 0.0 | 0.0 | 0.07 | 0.20 | 0.20 | 88 | 1016.7 |
| 20260906182822 | 69 | 60 | 0.0 | 0.0 | 0.07 | 0.20 | 0.20 | 89 | 1016.8 |
| 20260906182318 | 69 | 60 | 0.0 | 0.0 | 0.07 | 0.20 | 0.20 | 89 | 1016.9 |
| 20260906181850 | 69 | 60 | 0.0 | 0.0 | 0.06 | 0.19 | 0.19 | 88 | 1016.8 |
| 20260906181319 | 69 | 60 | 0.0 | 0.0 | 0.06 | 0.19 | 0.19 | 88 | 1016.8 |
| 20260906180831 | 69 | 60 | 0.0 | 0.0 | 0.05 | 0.18 | 0.18 | 87 | 1016.8 |
| 20260906180322 | 69 | 60 | 0.0 | 0.0 | 0.05 | 0.18 | 0.18 | 88 | 1016.7 |
| 20260906175814 | 69 | 60 | 0.0 | 0.0 | 0.04 | 0.17 | 0.17 | 87 | 1016.6 |
| 20260906175345 | 69 | 309 | 0.0 | 4.0 | 0.04 | 0.17 | 0.17 | 86 | 1016.6 |
| 20260906174816 | 69 | 309 | 1.0 | 4.0 | 0.03 | 0.16 | 0.16 | 85 | 1016.5 |
| 20260906174326 | 69 | 304 | 1.0 | 2.0 | 0.02 | 0.15 | 0.15 | 84 | 1016.5 |
| 20260906173838 | 70 | 283 | 0.0 | 0.0 | 0.01 | 0.14 | 0.14 | 84 | 1016.2 |
| 20260906173312 | 70 | 283 | 0.0 | 0.0 | 0.01 | 0.13 | 0.13 | 84 | 1016.2 |
| 20260906172824 | 70 | 283 | 0.0 | 0.0 | 0.01 | 0.13 | 0.13 | 83 | 1016.1 |
| 20260906172315 | 70 | 283 | 0.0 | 0.0 | 0.01 | 0.13 | 0.13 | 83 | 1015.8 |
| 20260906171826 | 70 | 283 | 0.0 | 0.0 | 0.01 | 0.13 | 0.13 | 84 | 1015.7 |
| 20260906171317 | 70 | 283 | 0.0 | 0.0 | 0.01 | 0.13 | 0.13 | 85 | 1015.5 |
| 20260906170849 | 70 | 283 | 0.0 | 0.0 | 0.01 | 0.13 | 0.13 | 85 | 1015.4 |
| 20260906170339 | 69 | 283 | 0.0 | 0.0 | 0.01 | 0.13 | 0.13 | 85 | 1015.5 |
| 20260906165830 | 70 | 283 | 0.0 | 0.0 | 0.01 | 0.13 | 0.13 | 86 | 1015.5 |
| 20260906165321 | 70 | 283 | 0.0 | 0.0 | 0.02 | 0.13 | 0.13 | 87 | 1015.3 |
| 20260906164813 | 70 | 276 | 0.0 | 0.0 | 0.02 | 0.13 | 0.13 | 87 | 1015.3 |
| 20260906164328 | 70 | 187 | 0.0 | 0.0 | 0.02 | 0.13 | 0.13 | 87 | 1015.2 |
| 20260906163840 | 70 | 187 | 0.0 | 0.0 | 0.02 | 0.13 | 0.13 | 87 | 1015.0 |
| 20260906163350 | 70 | 187 | 0.0 | 0.0 | 0.01 | 0.12 | 0.12 | 87 | 1014.9 |
| 20260906162819 | 69 | 187 | 0.0 | 0.0 | 0.01 | 0.12 | 0.12 | 86 | 1015.1 |
| 20260906162329 | 69 | 187 | 0.0 | 0.0 | 0.02 | 0.12 | 0.12 | 87 | 1015.1 |
| 20260906161841 | 69 | 187 | 0.0 | 0.0 | 0.02 | 0.12 | 0.12 | 87 | 1015.1 |
| 20260906161311 | 69 | 187 | 0.0 | 0.0 | 0.02 | 0.12 | 0.12 | 86 | 1015.1 |
| 20260906160821 | 69 | 187 | 0.0 | 0.0 | 0.02 | 0.12 | 0.12 | 86 | 1014.9 |
| 20260906160313 | 69 | 187 | 0.0 | 0.0 | 0.02 | 0.12 | 0.12 | 87 | 1015.0 |
| 20260906155824 | 69 | 187 | 0.0 | 0.0 | 0.02 | 0.12 | 0.12 | 87 | 1015.1 |
| 20260906155315 | 69 | 187 | 0.0 | 0.0 | 0.01 | 0.11 | 0.11 | 87 | 1015.2 |
| 20260906154827 | 69 | 187 | 0.0 | 0.0 | 0.01 | 0.11 | 0.11 | 87 | 1015.2 |
| 20260906154322 | 69 | 187 | 0.0 | 0.0 | 0.01 | 0.11 | 0.11 | 85 | 1015.3 |
| 20260906153813 | 69 | 187 | 0.0 | 0.0 | 0.01 | 0.11 | 0.11 | 87 | 1015.3 |
| 20260906153344 | 69 | 187 | 0.0 | 0.0 | 0.02 | 0.11 | 0.11 | 86 | 1015.2 |
| 20260906152815 | 69 | 187 | 0.0 | 0.0 | 0.02 | 0.11 | 0.11 | 87 | 1015.3 |
| 20260906152346 | 69 | 187 | 0.0 | 0.0 | 0.01 | 0.10 | 0.10 | 88 | 1015.4 |
| 20260906151815 | 69 | 237 | 0.0 | 0.0 | 0.01 | 0.10 | 0.10 | 89 | 1015.4 |
| 20260906151347 | 69 | 237 | 0.0 | 0.0 | 0.01 | 0.10 | 0.10 | 89 | 1015.4 |
| 20260906150817 | 69 | 217 | 0.0 | 0.0 | 0.01 | 0.10 | 0.10 | 89 | 1015.4 |
| 20260906150329 | 69 | 14 | 0.0 | 0.0 | 0.01 | 0.10 | 0.10 | 90 | 1015.2 |
| 20260906145820 | 69 | 15 | 0.0 | 0.0 | 0.01 | 0.10 | 0.10 | 90 | 1015.1 |
| 20260906145311 | 69 | 14 | 0.0 | 0.0 | 0.01 | 0.11 | 0.10 | 90 | 1015.0 |
| 20260906144827 | 69 | 15 | 0.0 | 0.0 | 0.01 | 0.11 | 0.10 | 90 | 1015.1 |
| 20260906144318 | 69 | 14 | 0.0 | 0.0 | 0.01 | 0.11 | 0.10 | 90 | 1014.9 |
| 20260906143828 | 69 | 14 | 0.0 | 0.0 | 0.01 | 0.11 | 0.10 | 90 | 1014.9 |
| 20260906143319 | 69 | 15 | 0.0 | 0.0 | 0.00 | 0.10 | 0.09 | 90 | 1014.8 |
| 20260906142811 | 69 | 14 | 0.0 | 0.0 | 0.00 | 0.10 | 0.09 | 90 | 1014.8 |
| 20260906142321 | 69 | 15 | 0.0 | 0.0 | 0.00 | 0.10 | 0.09 | 90 | 1014.7 |
| 20260906141812 | 69 | 14 | 0.0 | 0.0 | 0.00 | 0.10 | 0.09 | 90 | 1014.6 |
| 20260906141346 | 69 | 14 | 0.0 | 0.0 | 0.00 | 0.10 | 0.09 | 90 | 1014.6 |
| 20260906140816 | 69 | 14 | 0.0 | 0.0 | 0.00 | 0.10 | 0.09 | 90 | 1014.4 |
| 20260906140311 | 69 | 14 | 0.0 | 0.0 | 0.00 | 0.10 | 0.09 | 90 | 1014.2 |
| 20260906135843 | 69 | 15 | 0.0 | 0.0 | 0.00 | 0.10 | 0.09 | 90 | 1014.1 |
| 20260906135313 | 69 | 7 | 0.0 | 0.0 | 0.00 | 0.10 | 0.09 | 90 | 1013.9 |
| 20260906134825 | 69 | 300 | 0.0 | 0.0 | 0.00 | 0.10 | 0.09 | 90 | 1013.8 |
| 20260906134315 | 69 | 300 | 0.0 | 0.0 | 0.01 | 0.10 | 0.09 | 90 | 1013.7 |
| 20260906133828 | 69 | 300 | 0.0 | 0.0 | 0.01 | 0.10 | 0.09 | 90 | 1013.5 |
| 20260906133319 | 69 | 300 | 0.0 | 0.0 | 0.01 | 0.10 | 0.09 | 90 | 1013.3 |
| 20260906132829 | 69 | 300 | 0.0 | 0.0 | 0.01 | 0.10 | 0.09 | 90 | 1013.2 |
| 20260906132320 | 69 | 300 | 0.0 | 0.0 | 0.02 | 0.10 | 0.09 | 90 | 1013.0 |
| 20260906131811 | 69 | 300 | 0.0 | 0.0 | 0.03 | 0.10 | 0.09 | 90 | 1012.9 |
| 20260906131328 | 69 | 106 | 0.0 | 0.0 | 0.03 | 0.10 | 0.09 | 90 | 1012.8 |
| 20260906130819 | 69 | 106 | 0.0 | 0.0 | 0.04 | 0.10 | 0.09 | 89 | 1012.7 |
| 20260906130329 | 69 | 106 | 0.0 | 0.0 | 0.04 | 0.10 | 0.09 | 89 | 1012.6 |
| 20260906125820 | 69 | 106 | 0.0 | 0.0 | 0.04 | 0.10 | 0.09 | 89 | 1012.7 |
| 20260906125331 | 69 | 106 | 0.0 | 0.0 | 0.05 | 0.10 | 0.09 | 89 | 1012.7 |
| 20260906124823 | 69 | 107 | 0.0 | 0.0 | 0.05 | 0.10 | 0.09 | 88 | 1012.7 |
| 20260906124316 | 69 | 106 | 0.0 | 0.0 | 0.05 | 0.09 | 0.08 | 89 | 1012.8 |
| 20260906123826 | 69 | 106 | 0.0 | 0.0 | 0.05 | 0.09 | 0.08 | 88 | 1013.0 |
| 20260906123338 | 69 | 106 | 0.0 | 0.0 | 0.05 | 0.09 | 0.08 | 88 | 1013.1 |
| 20260906122811 | 69 | 106 | 0.0 | 0.0 | 0.06 | 0.09 | 0.08 | 87 | 1013.1 |
| 20260906122324 | 69 | 106 | 0.0 | 0.0 | 0.05 | 0.08 | 0.07 | 87 | 1013.1 |
| 20260906121815 | 69 | 106 | 0.0 | 0.0 | 0.04 | 0.07 | 0.06 | 87 | 1013.3 |
| 20260906121326 | 69 | 106 | 0.0 | 0.0 | 0.04 | 0.07 | 0.06 | 87 | 1013.1 |
| 20260906120818 | 69 | 106 | 0.0 | 0.0 | 0.03 | 0.06 | 0.05 | 86 | 1013.2 |
| 20260906120329 | 69 | 107 | 0.0 | 0.0 | 0.04 | 0.06 | 0.05 | 86 | 1013.3 |
| 20260906115819 | 69 | 106 | 0.0 | 0.0 | 0.04 | 0.06 | 0.05 | 85 | 1013.2 |
| 20260906115331 | 69 | 106 | 0.0 | 0.0 | 0.03 | 0.05 | 0.04 | 85 | 1013.4 |
| 20260906114822 | 69 | 106 | 0.0 | 0.0 | 0.04 | 0.05 | 0.04 | 83 | 1013.4 |
| 20260906114318 | 69 | 106 | 0.0 | 0.0 | 0.03 | 0.04 | 0.03 | 83 | 1013.7 |
| 20260906113830 | 69 | 106 | 0.0 | 0.0 | 0.03 | 0.04 | 0.03 | 82 | 1013.8 |
| 20260906113320 | 70 | 95 | 0.0 | 3.0 | 0.03 | 0.04 | 0.03 | 82 | 1013.7 |
| 20260906112851 | 70 | 79 | 1.0 | 6.0 | 0.02 | 0.03 | 0.02 | 82 | 1013.8 |
| 20260906112323 | 70 | 75 | 2.0 | 6.0 | 0.02 | 0.03 | 0.02 | 82 | 1013.7 |
| 20260906111814 | 70 | 89 | 3.0 | 6.0 | 0.02 | 0.03 | 0.02 | 81 | 1013.7 |
| 20260906111325 | 70 | 68 | 1.0 | 4.0 | 0.02 | 0.03 | 0.02 | 79 | 1013.9 |
| 20260906110837 | 71 | 85 | 0.0 | 3.0 | 0.02 | 0.03 | 0.02 | 76 | 1013.9 |
| 20260906110327 | 71 | 82 | 1.0 | 3.0 | 0.01 | 0.02 | 0.01 | 75 | 1013.8 |
| 20260906105818 | 73 | 88 | 0.0 | 1.0 | 0.01 | 0.02 | 0.01 | 72 | 1013.9 |
| 20260906105314 | 74 | 238 | 0.0 | 0.0 | 0.01 | 0.02 | 0.01 | 66 | 1013.9 |
| 20260906104826 | 74 | 238 | 0.0 | 0.0 | 0.00 | 0.01 | 0.00 | 63 | 1013.7 |
| 20260906104317 | 74 | 238 | 0.0 | 0.0 | 0.00 | 0.01 | 0.00 | 61 | 1013.6 |
| 20260906103828 | 74 | 238 | 0.0 | 0.0 | 0.00 | 0.01 | 0.00 | 61 | 1013.5 |
| 20260906103320 | 74 | 238 | 0.0 | 0.0 | 0.00 | 0.01 | 0.00 | 61 | 1013.4 |
| 20260906102812 | 74 | 238 | 0.0 | 0.0 | 0.00 | 0.01 | 0.00 | 61 | 1013.2 |
| 20260906102343 | 74 | 238 | 0.0 | 0.0 | 0.00 | 0.01 | 0.00 | 60 | 1013.1 |
| 20260906101814 | 74 | 238 | 0.0 | 0.0 | 0.00 | 0.01 | 0.00 | 61 | 1013.1 |
| 20260906101345 | 74 | 238 | 0.0 | 0.0 | 0.00 | 0.01 | 0.00 | 60 | 1013.1 |
| 20260906100815 | 74 | 238 | 0.0 | 0.0 | 0.00 | 0.01 | 0.00 | 60 | 1013.1 |
| 20260906100325 | 74 | 238 | 0.0 | 0.0 | 0.00 | 0.01 | 0.00 | 59 | 1013.0 |
| 20260906095820 | 74 | 238 | 0.0 | 0.0 | 0.00 | 0.01 | 0.00 | 59 | 1013.1 |
| 20260906095331 | 74 | 238 | 0.0 | 0.0 | 0.00 | 0.01 | 0.00 | 58 | 1013.1 |
| 20260906094821 | 74 | 238 | 0.0 | 0.0 | 0.00 | 0.01 | 0.00 | 57 | 1013.1 |
| 20260906094312 | 75 | 238 | 0.0 | 0.0 | 0.00 | 0.01 | 0.00 | 55 | 1013.1 |
| 20260906093824 | 75 | 238 | 0.0 | 0.0 | 0.00 | 0.01 | 0.00 | 55 | 1013.2 |
| 20260906093315 | 75 | 238 | 0.0 | 0.0 | 0.00 | 0.01 | 0.00 | 54 | 1013.2 |
| 20260906092827 | 75 | 238 | 0.0 | 0.0 | 0.00 | 0.01 | 0.00 | 51 | 1013.2 |
| 20260906092318 | 75 | 238 | 0.0 | 0.0 | 0.00 | 0.01 | 0.00 | 52 | 1013.2 |
| 20260906091813 | 75 | 238 | 0.0 | 0.0 | 0.00 | 0.01 | 0.00 | 52 | 1013.3 |
| 20260906091325 | 75 | 238 | 0.0 | 0.0 | 0.00 | 0.01 | 0.00 | 52 | 1013.4 |
| 20260906090816 | 75 | 238 | 0.0 | 0.0 | 0.00 | 0.01 | 0.00 | 52 | 1013.4 |
| 20260906090327 | 75 | 238 | 0.0 | 0.0 | 0.00 | 0.01 | 0.00 | 52 | 1013.3 |
| 20260906085818 | 75 | 238 | 0.0 | 0.0 | 0.00 | 0.01 | 0.00 | 52 | 1013.3 |
| 20260906085329 | 75 | 238 | 0.0 | 0.0 | 0.00 | 0.01 | 0.00 | 52 | 1013.3 |
| 20260906084819 | 75 | 238 | 0.0 | 0.0 | 0.00 | 0.01 | 0.00 | 52 | 1013.4 |
| 20260906084330 | 75 | 238 | 0.0 | 0.0 | 0.00 | 0.01 | 0.00 | 52 | 1013.4 |
| 20260906083825 | 75 | 238 | 0.0 | 0.0 | 0.00 | 0.01 | 0.00 | 52 | 1013.5 |
| 20260906083317 | 75 | 238 | 0.0 | 0.0 | 0.00 | 0.01 | 0.00 | 51 | 1013.5 |
| 20260906082828 | 75 | 238 | 0.0 | 0.0 | 0.00 | 0.01 | 0.00 | 49 | 1013.5 |
| 20260906082320 | 75 | 238 | 0.0 | 0.0 | 0.00 | 0.01 | 0.00 | 49 | 1013.6 |
| 20260906081831 | 75 | 238 | 0.0 | 0.0 | 0.00 | 0.01 | 0.00 | 50 | 1013.5 |
| 20260906081321 | 76 | 238 | 0.0 | 0.0 | 0.00 | 0.01 | 0.00 | 48 | 1013.5 |
| 20260906080811 | 76 | 238 | 0.0 | 0.0 | 0.00 | 0.01 | 0.00 | 50 | 1013.5 |
| 20260906080323 | 76 | 238 | 0.0 | 0.0 | 0.00 | 0.01 | 0.00 | 50 | 1013.4 |
| 20260906075818 | 76 | 238 | 0.0 | 0.0 | 0.00 | 0.01 | 0.00 | 50 | 1013.4 |
| 20260906075330 | 76 | 238 | 0.0 | 0.0 | 0.00 | 0.01 | 0.00 | 50 | 1013.5 |
| 20260906074821 | 76 | 238 | 0.0 | 0.0 | 0.00 | 0.01 | 0.00 | 49 | 1013.4 |
| 20260906074312 | 76 | 238 | 0.0 | 0.0 | 0.00 | 0.01 | 0.00 | 49 | 1013.5 |
| 20260906073845 | 76 | 238 | 0.0 | 0.0 | 0.00 | 0.01 | 0.00 | 49 | 1013.4 |
| 20260906073314 | 76 | 238 | 0.0 | 0.0 | 0.00 | 0.01 | 0.00 | 50 | 1013.4 |
| 20260906072826 | 76 | 238 | 0.0 | 0.0 | 0.00 | 0.01 | 0.00 | 50 | 1013.4 |
| 20260906072317 | 76 | 238 | 0.0 | 0.0 | 0.00 | 0.01 | 0.00 | 49 | 1013.4 |
| 20260906071829 | 76 | 238 | 0.0 | 0.0 | 0.00 | 0.01 | 0.00 | 48 | 1013.3 |
| 20260906071320 | 75 | 238 | 0.0 | 0.0 | 0.00 | 0.01 | 0.00 | 49 | 1013.4 |
| 20260906070816 | 75 | 238 | 0.0 | 0.0 | 0.00 | 0.01 | 0.00 | 48 | 1013.3 |
| 20260906070347 | 75 | 238 | 0.0 | 0.0 | 0.00 | 0.01 | 0.00 | 48 | 1013.2 |
| 20260906065816 | 75 | 238 | 0.0 | 0.0 | 0.00 | 0.01 | 0.00 | 48 | 1013.3 |
| 20260906065347 | 75 | 238 | 0.0 | 0.0 | 0.00 | 0.01 | 0.00 | 48 | 1013.3 |
| 20260906064838 | 76 | 238 | 0.0 | 0.0 | 0.00 | 0.01 | 0.00 | 49 | 1013.3 |
| 20260906064329 | 76 | 238 | 0.0 | 0.0 | 0.00 | 0.01 | 0.00 | 48 | 1013.2 |
| 20260906063820 | 76 | 238 | 0.0 | 0.0 | 0.00 | 0.01 | 0.00 | 49 | 1013.4 |
| 20260906063330 | 76 | 238 | 0.0 | 0.0 | 0.00 | 0.01 | 0.00 | 49 | 1013.3 |
| 20260906062822 | 76 | 238 | 0.0 | 0.0 | 0.00 | 0.01 | 0.00 | 49 | 1013.5 |
| 20260906062314 | 76 | 238 | 0.0 | 0.0 | 0.00 | 0.01 | 0.00 | 49 | 1013.5 |
| 20260906061826 | 76 | 238 | 0.0 | 0.0 | 0.00 | 0.01 | 0.00 | 49 | 1013.5 |
| 20260906061321 | 76 | 238 | 0.0 | 0.0 | 0.00 | 0.01 | 0.00 | 47 | 1013.4 |
| 20260906060813 | 76 | 238 | 0.0 | 0.0 | 0.00 | 0.01 | 0.00 | 46 | 1013.5 |
| 20260906060344 | 77 | 238 | 0.0 | 0.0 | 0.00 | 0.01 | 0.00 | 47 | 1013.4 |
| 20260906055814 | 77 | 238 | 0.0 | 0.0 | 0.00 | 0.01 | 0.00 | 46 | 1013.4 |
| 20260906055346 | 77 | 238 | 0.0 | 0.0 | 0.00 | 0.01 | 0.00 | 46 | 1013.4 |
| 20260906054816 | 77 | 238 | 0.0 | 0.0 | 0.00 | 0.01 | 0.00 | 46 | 1013.4 |
| 20260906054327 | 77 | 238 | 0.0 | 0.0 | 0.00 | 0.01 | 0.00 | 46 | 1013.3 |
| 20260906053820 | 77 | 238 | 0.0 | 0.0 | 0.00 | 0.01 | 0.00 | 45 | 1013.3 |
| 20260906053330 | 77 | 238 | 0.0 | 0.0 | 0.00 | 0.01 | 0.00 | 45 | 1013.2 |
| 20260906052826 | 77 | 238 | 0.0 | 0.0 | 0.00 | 0.01 | 0.00 | 44 | 1013.2 |
| 20260906052317 | 77 | 238 | 0.0 | 0.0 | 0.00 | 0.01 | 0.00 | 44 | 1013.2 |
| 20260906051830 | 78 | 238 | 0.0 | 0.0 | 0.00 | 0.01 | 0.00 | 44 | 1013.2 |
| 20260906051320 | 78 | 238 | 0.0 | 0.0 | 0.00 | 0.01 | 0.00 | 43 | 1013.2 |
| 20260906050811 | 79 | 238 | 0.0 | 0.0 | 0.00 | 0.01 | 0.00 | 42 | 1013.2 |
| 20260906050322 | 79 | 238 | 0.0 | 0.0 | 0.00 | 0.01 | 0.00 | 43 | 1013.4 |
| 20260906045814 | 79 | 238 | 0.0 | 0.0 | 0.00 | 0.01 | 0.00 | 42 | 1013.4 |
| 20260906045325 | 80 | 238 | 0.0 | 0.0 | 0.00 | 0.01 | 0.00 | 42 | 1013.3 |
| 20260906044821 | 80 | 238 | 0.0 | 0.0 | 0.00 | 0.01 | 0.00 | 41 | 1013.4 |
| 20260906044333 | 80 | 238 | 0.0 | 1.0 | 0.00 | 0.01 | 0.00 | 41 | 1013.4 |
| 20260906043823 | 80 | 238 | 0.0 | 1.0 | 0.00 | 0.01 | 0.00 | 40 | 1013.4 |
| 20260906043312 | 81 | 238 | 0.0 | 0.0 | 0.00 | 0.01 | 0.00 | 40 | 1013.4 |
| 20260906042824 | 81 | 238 | 0.0 | 0.0 | 0.00 | 0.01 | 0.00 | 39 | 1013.5 |
| 20260906042314 | 81 | 238 | 0.0 | 1.0 | 0.00 | 0.01 | 0.00 | 39 | 1013.4 |
| 20260906041825 | 81 | 238 | 0.0 | 3.0 | 0.00 | 0.01 | 0.00 | 39 | 1013.2 |
| 20260906041316 | 81 | 237 | 1.0 | 4.0 | 0.00 | 0.01 | 0.00 | 39 | 1013.2 |
| 20260906040828 | 81 | 210 | 2.0 | 4.0 | 0.00 | 0.01 | 0.00 | 38 | 1013.2 |
| 20260906040318 | 81 | 210 | 3.0 | 4.0 | 0.00 | 0.01 | 0.00 | 39 | 1013.3 |
| 20260906035830 | 81 | 252 | 0.0 | 0.0 | 0.00 | 0.01 | 0.00 | 39 | 1013.3 |
| 20260906035342 | 81 | 221 | 0.0 | 0.0 | 0.00 | 0.01 | 0.00 | 38 | 1013.1 |
| 20260906034819 | 81 | 221 | 0.0 | 0.0 | 0.00 | 0.01 | 0.00 | 38 | 1013.1 |
| 20260906034352 | 82 | 221 | 0.0 | 0.0 | 0.00 | 0.01 | 0.00 | 37 | 1013.2 |
| 20260906033821 | 82 | 221 | 0.0 | 0.0 | 0.00 | 0.01 | 0.00 | 36 | 1013.2 |
| 20260906033312 | 82 | 221 | 0.0 | 0.0 | 0.00 | 0.01 | 0.00 | 36 | 1013.2 |
| 20260906032825 | 83 | 221 | 0.0 | 0.0 | 0.00 | 0.01 | 0.00 | 36 | 1013.2 |
| 20260906032316 | 83 | 221 | 0.0 | 0.0 | 0.00 | 0.01 | 0.00 | 36 | 1013.1 |
| 20260906031828 | 83 | 221 | 0.0 | 3.0 | 0.00 | 0.01 | 0.00 | 36 | 1013.0 |
| 20260906031318 | 83 | 221 | 1.0 | 4.0 | 0.00 | 0.01 | 0.00 | 36 | 1013.0 |
| 20260906030849 | 83 | 224 | 0.0 | 4.0 | 0.00 | 0.01 | 0.00 | 35 | 1012.9 |
| 20260906030323 | 84 | 250 | 0.0 | 3.0 | 0.00 | 0.01 | 0.00 | 35 | 1012.9 |
| 20260906025811 | 84 | 271 | 1.0 | 4.0 | 0.00 | 0.01 | 0.00 | 35 | 1013.0 |
| 20260906025322 | 84 | 221 | 2.0 | 4.0 | 0.00 | 0.01 | 0.00 | 34 | 1012.8 |
| 20260906024814 | 84 | 280 | 1.0 | 5.0 | 0.00 | 0.01 | 0.00 | 35 | 1012.7 |
| 20260906024326 | 85 | 258 | 2.0 | 5.0 | 0.00 | 0.01 | 0.00 | 35 | 1012.6 |
| 20260906023817 | 85 | 216 | 1.0 | 5.0 | 0.00 | 0.01 | 0.00 | 35 | 1012.6 |
| 20260906023328 | 85 | 217 | 1.0 | 8.0 | 0.00 | 0.01 | 0.00 | 35 | 1012.6 |
| 20260906022840 | 85 | 210 | 4.0 | 8.0 | 0.00 | 0.01 | 0.00 | 35 | 1012.5 |
| 20260906022331 | 85 | 228 | 3.0 | 8.0 | 0.00 | 0.01 | 0.00 | 36 | 1012.4 |
| 20260906021826 | 86 | 217 | 3.0 | 8.0 | 0.00 | 0.01 | 0.00 | 35 | 1012.4 |
| 20260906021316 | 86 | 212 | 4.0 | 8.0 | 0.00 | 0.01 | 0.00 | 35 | 1012.3 |
| 20260906020829 | 86 | 231 | 3.0 | 7.0 | 0.00 | 0.01 | 0.00 | 35 | 1012.2 |
| 20260906020339 | 87 | 222 | 3.0 | 7.0 | 0.00 | 0.01 | 0.00 | 34 | 1012.3 |
| 20260906015849 | 87 | 220 | 2.0 | 10.0 | 0.00 | 0.01 | 0.00 | 34 | 1012.3 |
| 20260906015319 | 87 | 212 | 4.0 | 10.0 | 0.00 | 0.01 | 0.00 | 33 | 1012.2 |
| 20260906014811 | 87 | 219 | 2.0 | 10.0 | 0.00 | 0.01 | 0.00 | 33 | 1012.3 |
| 20260906014323 | 87 | 230 | 5.0 | 10.0 | 0.00 | 0.01 | 0.00 | 33 | 1012.1 |
| 20260906013814 | 88 | 196 | 3.0 | 9.0 | 0.00 | 0.01 | 0.00 | 33 | 1012.1 |
| 20260906013327 | 88 | 220 | 4.0 | 9.0 | 0.00 | 0.01 | 0.00 | 33 | 1012.2 |
| 20260906012839 | 88 | 238 | 4.0 | 11.0 | 0.00 | 0.01 | 0.00 | 32 | 1012.2 |
| 20260906012311 | 88 | 234 | 5.0 | 11.0 | 0.00 | 0.01 | 0.00 | 32 | 1012.4 |
| 20260906011824 | 89 | 219 | 5.0 | 10.0 | 0.00 | 0.01 | 0.00 | 32 | 1012.3 |
| 20260906011315 | 89 | 221 | 5.0 | 9.0 | 0.00 | 0.01 | 0.00 | 31 | 1012.4 |
| 20260906010827 | 89 | 244 | 2.0 | 12.0 | 0.00 | 0.01 | 0.00 | 31 | 1012.3 |
| 20260906010319 | 89 | 195 | 4.0 | 12.0 | 0.00 | 0.01 | 0.00 | 31 | 1012.3 |
| 20260906005831 | 89 | 219 | 6.0 | 11.0 | 0.00 | 0.01 | 0.00 | 31 | 1012.3 |
| 20260906005323 | 89 | 226 | 6.0 | 11.0 | 0.00 | 0.01 | 0.00 | 31 | 1012.4 |
| 20260906004815 | 89 | 226 | 5.0 | 9.0 | 0.00 | 0.01 | 0.00 | 31 | 1012.4 |
| 20260906004326 | 89 | 257 | 6.0 | 9.0 | 0.00 | 0.01 | 0.00 | 31 | 1012.5 |
| 20260906003821 | 90 | 194 | 3.0 | 7.0 | 0.00 | 0.01 | 0.00 | 32 | 1012.3 |
| 20260906003312 | 89 | 217 | 1.0 | 9.0 | 0.00 | 0.01 | 0.00 | 32 | 1012.3 |
| 20260906002823 | 89 | 214 | 4.0 | 11.0 | 0.00 | 0.01 | 0.00 | 32 | 1012.3 |
| 20260906002315 | 90 | 224 | 5.0 | 10.0 | 0.00 | 0.01 | 0.00 | 31 | 1012.2 |
| 20260906001826 | 90 | 195 | 4.0 | 10.0 | 0.00 | 0.01 | 0.00 | 31 | 1012.3 |
| 20260906001316 | 90 | 185 | 2.0 | 11.0 | 0.00 | 0.01 | 0.00 | 32 | 1012.3 |
| 20260906000828 | 90 | 195 | 5.0 | 9.0 | 0.00 | 0.01 | 0.00 | 31 | 1012.3 |
| 20260906000340 | 90 | 234 | 6.0 | 10.0 | 0.00 | 0.01 | 0.00 | 31 | 1012.2 |
| 20260905235851 | 90 | 217 | 5.0 | 11.0 | 0.00 | 0.01 | 0.00 | 31 | 1012.2 |
| 20260905235321 | 90 | 193 | 5.0 | 11.0 | 0.00 | 0.01 | 0.00 | 31 | 1012.3 |
| 20260905234816 | 90 | 251 | 4.0 | 10.0 | 0.00 | 0.01 | 0.00 | 31 | 1012.3 |
| 20260905234326 | 90 | 240 | 3.0 | 9.0 | 0.00 | 0.01 | 0.00 | 30 | 1012.3 |
| 20260905233818 | 90 | 250 | 4.0 | 9.0 | 0.00 | 0.01 | 0.00 | 30 | 1012.4 |
| 20260905233329 | 91 | 231 | 3.0 | 12.0 | 0.00 | 0.01 | 0.00 | 30 | 1012.4 |
| 20260905232820 | 91 | 201 | 5.0 | 12.0 | 0.00 | 0.01 | 0.00 | 30 | 1012.4 |
| 20260905232312 | 91 | 191 | 3.0 | 10.0 | 0.00 | 0.01 | 0.00 | 30 | 1012.4 |
| 20260905231823 | 91 | 221 | 5.0 | 11.0 | 0.00 | 0.01 | 0.00 | 30 | 1012.4 |
| 20260905231314 | 91 | 195 | 4.0 | 11.0 | 0.00 | 0.01 | 0.00 | 30 | 1012.4 |
| 20260905230825 | 91 | 209 | 4.0 | 10.0 | 0.00 | 0.01 | 0.00 | 30 | 1012.4 |
| 20260905230320 | 91 | 259 | 3.0 | 9.0 | 0.00 | 0.01 | 0.00 | 30 | 1012.5 |
| 20260905225812 | 91 | 293 | 5.0 | 9.0 | 0.00 | 0.01 | 0.00 | 30 | 1012.5 |
| 20260905225323 | 91 | 245 | 3.0 | 10.0 | 0.00 | 0.01 | 0.00 | 30 | 1012.4 |
| 20260905224835 | 91 | 193 | 7.0 | 10.0 | 0.00 | 0.01 | 0.00 | 29 | 1012.5 |
| 20260905224325 | 91 | 215 | 5.0 | 9.0 | 0.00 | 0.01 | 0.00 | 29 | 1012.5 |